TimeMDT,TemperatureF,Dew PointF,Humidity,Sea Level PressureIn,VisibilityMPH,Wind Direction,Wind SpeedMPH,Gust SpeedMPH,PrecipitationIn,Events,Conditions,WindDirDegrees,DateUTC
12:53 AM,39.0,21.0,49,30.63,10.0,Calm,Calm,-,0.00,,Scattered Clouds,0,2013-05-02 06:53:00
1:53 AM,37.9,21.0,51,30.63,10.0,SSW,5.8,-,N/A,,Partly Cloudy,210,2013-05-02 07:53:00
2:53 AM,35.1,21.0,57,30.63,10.0,SW,10.4,-,N/A,,Partly Cloudy,230,2013-05-02 08:53:00
3:53 AM,35.1,21.9,59,30.63,10.0,SW,15.0,-,N/A,,Clear,230,2013-05-02 09:53:00
4:53 AM,35.1,21.9,59,30.63,10.0,SW,15.0,-,N/A,,Partly Cloudy,230,2013-05-02 10:53:00
5:53 AM,34.0,23.0,64,30.65,10.0,WSW,16.1,-,N/A,,Partly Cloudy,240,2013-05-02 11:53:00
6:53 AM,34.0,24.1,67,30.65,10.0,SW,17.3,-,N/A,,Clear,230,2013-05-02 12:53:00
7:53 AM,37.0,25.0,62,30.65,10.0,WSW,18.4,-,N/A,,Clear,240,2013-05-02 13:53:00
8:53 AM,41.0,26.1,55,30.65,10.0,WSW,17.3,-,N/A,,Clear,240,2013-05-02 14:53:00
9:53 AM,46.9,23.0,39,30.61,10.0,WSW,13.8,20.7,N/A,,Clear,240,2013-05-02 15:53:00
10:53 AM,51.1,19.9,29,30.58,10.0,SW,10.4,18.4,N/A,,Clear,230,2013-05-02 16:53:00
11:53 AM,53.1,18.0,25,30.55,10.0,SW,13.8,20.7,N/A,,Clear,230,2013-05-02 17:53:00
12:53 PM,55.9,17.1,22,30.49,10.0,West,15.0,20.7,N/A,,Clear,260,2013-05-02 18:53:00
1:30 PM,55.9,15.1,20,30.45,10.0,SSW,16.1,23.0,N/A,,Clear,200,2013-05-02 19:30:00
1:53 PM,57.0,16.0,20,30.46,10.0,SSW,12.7,20.7,N/A,,Clear,210,2013-05-02 19:53:00
2:53 PM,59.0,16.0,19,30.43,10.0,SW,11.5,20.7,N/A,,Clear,220,2013-05-02 20:53:00
3:53 PM,62.1,15.1,16,30.38,10.0,SW,16.1,24.2,N/A,,Clear,230,2013-05-02 21:53:00
4:53 PM,63.0,16.0,16,30.35,10.0,SW,15.0,21.9,N/A,,Clear,230,2013-05-02 22:53:00
5:53 PM,63.0,17.1,17,30.32,10.0,SSW,13.8,19.6,N/A,,Clear,210,2013-05-02 23:53:00
6:53 PM,62.1,18.0,18,30.30,10.0,SW,11.5,-,N/A,,Clear,220,2013-05-03 00:53:00
7:53 PM,60.1,17.1,19,30.28,10.0,South,8.1,-,N/A,,Clear,190,2013-05-03 01:53:00
8:53 PM,57.0,17.1,21,30.28,10.0,SW,5.8,-,N/A,,Clear,230,2013-05-03 02:53:00
9:53 PM,52.0,19.9,28,30.27,10.0,South,8.1,-,N/A,,Clear,190,2013-05-03 03:53:00
10:53 PM,51.1,16.0,25,30.25,10.0,WSW,15.0,-,N/A,,Clear,250,2013-05-03 04:53:00
11:53 PM,50.0,16.0,26,30.23,10.0,WSW,15.0,-,N/A,,Clear,250,2013-05-03 05:53:00